Location: Newark
(40.7066°N, 111.8219°W)
Time: 10:43:47
(UTC+00:00)

deb Explorer IX - Pass Details

Date: 25 November 2019
Orbit: 546 x 1104 km, 38.8° (Epoch: 12 December)

Event Time Altitude Azimuth Distance (km) Brightness Sun altitude
Exits shadow 12:11:18 13° 196° (SSW) 2,024 ? -25.0°
Drops below altitude 10° 12:12:29 10° 183° (S) 2,210 ? -24.8°
Sets 12:15:36 0° 161° (SSE) 3,014 ? -24.2°
